STARLINK-31583, 59369

Orbit data source: Space-Track

STARLINK-31583, 59369 is a payload satellite owned by SpaceX/Seattle (US) in LEO that was launched on Sun, 31 Mar 2024 UTC via an FALCON 9 launch vehicle from the Air Force Eastern Test Range (AFETR). Payload-class satellites include a variety of spacecraft equipped with specific instruments for various scientific and technological missions. These include communications satellites like Starlink; space stations such as the ISS; scientific satellites like the Hubble; Earth observation satellites from companies like Planet Labs, Umbra, and HawkEye 360; GPS; miniature CubeSats for education and research; and military/defense satellites.

Loading next visibility...
Identifier
59369, 2024-060X
Orbit
LEO
Country
Flag of USUS
Related business
Manufacturer
SpaceX/Seattle
Mission
Operational Commercial Communications
Bus & Motor
STARLINK V2M, Unknown motor
Mass
730 kg wet, ~700 kg dry
Launch date (UTC)
2024-03-31 (2 years ago)
Launch vehicle
FALCON 9
Launch site
Air Force Eastern Test Range (AFETR)
Object type
Payload
Rocket body
Debris
Shape & HBR
Box + 2 Pan, 17.7 m
Radar Cross Section
33.884 m², Large (>1 m²)

Expand to show TLE details & history
Last TLE update: 15 hours ago

TLE from 15 hours ago
0 STARLINK-31583
1 59369U 24060X   25289.21043645  .00006398  00000-0  24196-3 0  9996
2 59369  43.0029 344.8079 0001179 301.5298  58.5439 15.27559849 88097
Epoch: 2025-10-16T05:03Z
TLE epoch observation values (Epoch: 2025-10-16T05:03:01.709Z)
Latitude
0.00003°
Longitude
-115.92262°
Altitude
482.463 km
Speed
7.626 km/s
True Right ascension
22h 59m 13s
True Declination
0° 00' 00"
Sunlit
Object was in full shadow at epoch
Visualization orbit readout
Latitude
Unknown
Longitude
Unknown
Altitude
Unknown
Speed
Unknown
Apparent Right ascension
Unknown
Apparent Declination
Unknown
Sunlit
N/A
Visualization observer readout
Local Sidereal Time
14:29:36
Azimuth
Unknown
Elevation
Unknown
Doppler factor
Unknown
Orbital elements
Apogee altitude
485.863 km
Perigee altitude
484.245 km
Semi-major axis
6,863.191 km
Eccentricity
0.00012
Inclination
43.0029°
RAAN
344.8079°
Arg. of periapsis
301.5298°
True anomaly
58.55543°
Mean anomaly
58.5439°
Eccentric anomaly
58.54966°
Mean motion
3.81728 °/min
Orbital period
94.31 mins
BSTAR
0.00024196
Loading maneuver chart data...
Computing Atmospheric mass density...
Loading historical data...
Loading historical data...
Loading historical data...
Loading historical data...
Loading historical data...
Loading historical data...
Loading historical data...

Documentation

Showing up to 5 results
|